{"data":{"norad_id":58034,"epoch":"2026-09-20T23:36:45.172224Z","epoch_age_seconds":96553,"freshness":"FRESH","line1":"1 58034U 23156G   26263.98385616 -.00001887  00000+0 -44712-4 0  9999","line2":"2 58034  53.1588 249.1535 0001276  85.0927 275.0222 15.34405119166240","mean_motion":15.34405119,"eccentricity":0.0001276,"inclination_deg":53.1588,"raan_deg":249.1535,"arg_perigee_deg":85.0927,"mean_anomaly_deg":275.0222,"bstar":-4.4712e-5,"rev_number":16624,"period_min":93.847444991481,"perigee_km":461.81513622937,"apogee_km":463.56091477588,"semimajor_km":6840.8250255026,"source":"CELESTRAK","updated_at":"2026-09-21T09:00:33.759147Z"}}